Location: Herm
(49.4830°N, 2.4500°W)
Time: 20:29:39
(UTC+00:00)

NOAA 15 - Pass Details

Date: 04 November 2021
Orbit: 797 x 812 km, 98.7° (Epoch: 27 November)

Event Time Altitude Azimuth Distance (km) Brightness Sun altitude
Rises 18:26:05 0° 152° (SSE) 3,323 7.6 -17.1°
Reaches altitude 10° 18:28:26 10° 149° (SSE) 2,396 6.8 -17.4°
Maximum altitude 18:33:39 62° 70° (ENE) 919 4.6 -18.3°
Drops below altitude 10° 18:38:54 10° 351° (N) 2,412 7.2 -19.1°
Sets 18:41:16 0° 348° (NNW) 3,347 7.9 -19.5°
